Other Public Products
Issued by NWS Charleston, SC

Current Version | Previous Version | Text Only | Print | Product List | Glossary Off
Versions: 1 2 3 4 5 6 7 8 9 10 11 12 13 14 15 16 17 18 19 20 21 22 23 24 25 26 27 28 29 30 31 32 33 34 35 36 37 38 39 40 41 42 43 44 45 46 47 48 49 50
000 FPUS82 KCHS 211312 OPUCHS TEST...KCHS/KSAV Gateway Observations...TEST National Weather Service Charleston SC 800 AM EST WED FEB 21 2018 NOTE: "fair" indicates few or no clouds below 12,000 feet with no significant weather and/or obstructions to visibility. SCZ050-WAZ558-NCZ071-TXZ119-213-PAZ071-DCZ001-FLZ074-172-MI076- NYZ176-178-MAZ016-IL014-TNZ027-NJZ106-GAZ044-MD014-211400- ...Gateway Observations for Charleston International... CITY SKY/WX TMP DP RH WIND PRES REMARKS Chas Airport FAIR 67 66 97 CALM 30.46R FOG Seattle CLEAR 27 13 55 NE5 30.31R WCI 22 Charlotte PTSUNNY 66 65 96 S7 30.45S Dallas DFW LGT RAIN 35 32 88 N20 30.24F WCI 24 Dallas Love LGT RAIN 35 32 88 N17G25 30.27F WCI 25 Philladelphia CLOUDY 61 59 93 SW18G25 30.33R Wash National FAIR 61 60 97 S16 30.34S Baltimore FAIR 63 61 93 SW9 30.32R Miami FAIR 76 69 79 E15 30.34R Detroit LGT RAIN 40 37 89 NW14 30.28R WCI 32 Newark CLOUDY 62 59 90 SW9 30.29S Laguardia CLOUDY 58 53 84 S7 30.30R J F K FOG 47 47 100 S7 30.33R VSB 1/4 Boston Logan CLOUDY 58 56 93 SW22G31 30.20F Ft. Lauderdale PTSUNNY 76 70 82 E18 30.33S Chicago O`Hare CLOUDY 28 19 69 NW12 30.42R WCI 18 Chicago Midway CLOUDY 30 24 78 NW13 30.42R WCI 20 Houston Bush CLOUDY 70 68 93 SE6 30.07R Houston Hobby CLOUDY 70 70 100 SE5 30.06R Nashville MOCLDY 71 62 73 SW15G26 30.26R Atlanta CLOUDY 67 67 100 S12 30.39R $$ GAZ044-118-TXZ119-213-NCZ071-DCZ001-MDZ014-506-PAZ021-071-NJZ106- NYZ176-178-MAZ106-OHZ011-021-055-MIZ076-KYZ091-ILZ014-INZ047- MNZ060-ONZ431-211400- ...Gateway Observations for Savannah International... CITY SKY/WX TMP DP RH WIND PRES REMARKS Savannah Arpt LGT RAIN 66 66 100 CALM 30.44S Atlanta CLOUDY 67 67 100 S12 30.39R Charlotte PTSUNNY 66 65 96 S7 30.45S Dallas DFW LGT RAIN 35 32 88 N20 30.24F WCI 24 Houston Bush CLOUDY 70 68 93 SE6 30.07R Wash National FAIR 61 60 97 S16 30.34S Wash Dulles PTSUNNY 61 60 97 S12 30.34R Baltimore FAIR 63 61 93 SW9 30.32R Philadelphia CLOUDY 61 59 93 SW18G25 30.33R Newark CLOUDY 62 59 90 SW9 30.29S Laguardia CLOUDY 58 53 84 S7 30.30R J F K FOG 47 47 100 S7 30.33R VSB 1/4 Boston CLOUDY 58 56 93 SW22G31 30.20F Pittsburg CLOUDY 68 52 56 SW15G24 30.19R Akron LGT RAIN 59 54 83 NW20G29 30.20R Cleveland LGT RAIN 56 54 93 NW9 30.24R Cincinnati LGT RAIN 56 56 100 NW8 30.28R FOG Columbus CLOUDY 56 55 94 N13 30.22R Detroit LGT RAIN 40 37 89 NW14 30.28R WCI 32 Chicago O`Hare CLOUDY 28 19 69 NW12 30.42R WCI 18 Minneapolis FAIR 3 -1 83 SW5 30.55R WCI -6 Indianapolis LGT RAIN 39 37 92 N13 30.32R WCI 31 Toronto Canada NOT AVBL $$

USA.gov is the U.S. government's official web portal to all federal, state and local government web resources and services.